TimeEST,TemperatureF,Dew PointF,Humidity,Sea Level PressureIn,VisibilityMPH,Wind Direction,Wind SpeedMPH,Gust SpeedMPH,PrecipitationIn,Events,Conditions,WindDirDegrees,DateUTC
12:51 AM,16.0,12.0,84,30.49,-9999.0,ENE,17.3,21.9,N/A,,Unknown,60,2013-02-21 05:51:00
1:51 AM,16.0,12.0,84,30.48,-9999.0,ENE,19.6,23.0,N/A,,Unknown,60,2013-02-21 06:51:00
2:51 AM,16.0,12.0,84,30.47,-9999.0,ENE,17.3,20.7,N/A,,Unknown,60,2013-02-21 07:51:00
3:51 AM,16.0,12.9,88,30.48,-9999.0,ENE,12.7,-,N/A,,Unknown,70,2013-02-21 08:51:00
4:51 AM,16.0,12.9,88,30.50,-9999.0,ENE,9.2,-,N/A,,Unknown,60,2013-02-21 09:51:00
5:51 AM,17.1,12.9,84,30.52,-9999.0,ENE,12.7,-,N/A,,Unknown,70,2013-02-21 10:51:00
6:51 AM,17.1,12.9,84,30.54,-9999.0,NE,10.4,-,N/A,,Unknown,50,2013-02-21 11:51:00
7:51 AM,17.1,12.9,84,30.56,-9999.0,NE,10.4,-,N/A,,Unknown,50,2013-02-21 12:51:00
8:51 AM,17.1,12.9,84,30.56,-9999.0,ENE,10.4,-,N/A,,Unknown,60,2013-02-21 13:51:00
9:51 AM,17.1,14.0,88,30.53,-9999.0,East,12.7,20.7,N/A,,Unknown,80,2013-02-21 14:51:00
10:51 AM,18.0,15.1,88,30.49,-9999.0,East,12.7,24.2,N/A,,Unknown,80,2013-02-21 15:51:00
11:51 AM,18.0,16.0,92,30.51,-9999.0,East,11.5,18.4,N/A,,Unknown,80,2013-02-21 16:51:00
12:51 PM,19.0,16.0,88,30.54,-9999.0,NE,3.5,-,N/A,,Unknown,50,2013-02-21 17:51:00
1:51 PM,19.9,17.1,89,30.52,-9999.0,ENE,8.1,-,N/A,,Unknown,60,2013-02-21 18:51:00
2:51 PM,21.0,18.0,88,30.51,-9999.0,ENE,11.5,-,N/A,,Unknown,60,2013-02-21 19:51:00
3:51 PM,21.0,18.0,88,30.49,-9999.0,ENE,10.4,-,N/A,,Unknown,70,2013-02-21 20:51:00
4:51 PM,21.9,19.0,89,30.46,-9999.0,East,10.4,-,N/A,,Unknown,80,2013-02-21 21:51:00
5:51 PM,23.0,19.0,85,30.46,-9999.0,East,10.4,18.4,N/A,,Unknown,80,2013-02-21 22:51:00
6:51 PM,23.0,19.0,85,30.46,-9999.0,East,6.9,-,N/A,,Unknown,100,2013-02-21 23:51:00
7:51 PM,24.1,19.9,84,30.44,-9999.0,SE,8.1,-,N/A,,Unknown,130,2013-02-22 00:51:00
8:51 PM,25.0,19.9,81,30.41,-9999.0,Variable,6.9,-,N/A,,Unknown,0,2013-02-22 01:51:00
9:51 PM,25.0,21.0,85,30.40,-9999.0,SSE,3.5,-,N/A,,Unknown,150,2013-02-22 02:51:00
10:51 PM,25.0,21.0,85,30.38,-9999.0,SSE,8.1,-,N/A,,Unknown,160,2013-02-22 03:51:00
11:51 PM,25.0,21.9,88,30.35,-9999.0,Calm,Calm,-,N/A,,Unknown,0,2013-02-22 04:51:00